Weather History for PAQT - June, 2013

Change the Weather History Date:

Tuesday, June 25, 2013

  Actual Average (PAKU) Record (PAKU)
Temperature  
Mean Temperature 36 °F -  
Max Temperature 39 °F 50 °F 73 °F (2000)
Min Temperature 33 °F 36 °F 10 °F (1983)
Degree Days  
Heating Degree Days 29    
Moisture  
Dew Point 34 °F    
Average Humidity 96    
Maximum Humidity 100    
Minimum Humidity 86    
Precipitation  
Precipitation 0.00 in - - ()
Sea Level Pressure  
Sea Level Pressure 30.05 in    
Wind  
Wind Speed 16 mph (ENE)    
Max Wind Speed 21 mph    
Max Gust Speed 28 mph    
Visibility 6 miles    
Events      
Averages and records for this station are not official NWS values.
T = Trace of Precipitation, MM = Missing Value Source: NWS Daily Summary

Daily Weather History Graph

Daily Weather History Graph

Search for Another Location

Airport or City:

Trip Planner

Search our weather history database for the weather conditions in past years. The results will help you decide how hot, cold, wet, or windy it might be!

Date:

Astronomy

Dec. 31, 1969 Rise Set
Actual Time Sun does not rise Sun does not rise
Civil Twilight Sun does not rise Sun does not rise
Nautical Twilight Sun does not rise Sun does not rise
Astronomical Twilight Sun does not rise Sun does not rise
Moon 1:15 AM AKDT (6/25) 7:10 AM AKDT (6/25)
Length of Visible Light 24h 00m
Length of Day
24h 00m
Waning Gibbous, 92% of the Moon is Illuminated
Jun 25
Waning Gibbous
Jun 29
Last Quarter
Jul 7
New
Jul 15
First Quarter
Jul 22
Full

Hourly Weather History & Observations

Time (AKDT) Temp. Windchill Dew Point Humidity Pressure Visibility Wind Dir Wind Speed Gust Speed Precip Events Conditions
12:01 AM 35.6 °F 26.2 °F 33.8 °F 93% 30.10 in 3.0 mi ENE 15.0 mph - N/A   Overcast
12:13 AM 35.6 °F 26.2 °F 33.8 °F 93% 30.10 in 5.0 mi ENE 15.0 mph - N/A   Overcast
12:53 AM 35.1 °F 24.8 °F 34.0 °F 96% 30.11 in 6.0 mi ENE 17.3 mph - N/A   Overcast
1:53 AM 34.0 °F 23.8 °F 34.0 °F 100% 30.11 in 9.0 mi ENE 16.1 mph - N/A   Overcast
2:53 AM 34.0 °F 23.8 °F 34.0 °F 100% 30.11 in 2.5 mi ENE 16.1 mph - N/A   Overcast
3:10 AM 33.8 °F 23.5 °F 33.8 °F 100% 30.10 in 1.8 mi ENE 16.1 mph - N/A   Overcast
3:18 AM 33.8 °F 23.9 °F 33.8 °F 100% 30.10 in 2.5 mi ENE 15.0 mph - N/A   Overcast
3:50 AM 33.8 °F 24.3 °F 33.8 °F 100% 30.10 in 4.0 mi ENE 13.8 mph - N/A   Overcast
3:53 AM 34.0 °F 23.4 °F 34.0 °F 100% 30.11 in 4.0 mi ENE 17.3 mph - N/A   Overcast
4:53 AM 34.0 °F 25.0 °F 34.0 °F 100% 30.11 in 7.0 mi ENE 12.7 mph 21.9 mph N/A   Overcast
5:53 AM 34.0 °F 24.2 °F 34.0 °F 100% 30.10 in 2.5 mi ENE 15.0 mph - N/A   Overcast
6:15 AM 33.8 °F 24.3 °F 33.8 °F 100% 30.10 in 3.0 mi ENE 13.8 mph - N/A   Overcast
6:36 AM 33.8 °F 23.9 °F 33.8 °F 100% 30.09 in 2.5 mi ENE 15.0 mph - N/A   Overcast
6:53 AM 34.0 °F 24.2 °F 34.0 °F 100% 30.09 in 2.5 mi ENE 15.0 mph - N/A   Overcast
7:53 AM 35.1 °F 26.4 °F 35.1 °F 100% 30.09 in 2.5 mi ENE 12.7 mph - N/A   Overcast
8:00 AM 33.8 °F 23.5 °F 33.8 °F 100% 30.09 in 3.0 mi ENE 16.1 mph - N/A   Overcast
8:50 AM 35.6 °F 26.2 °F 35.6 °F 100% 30.08 in 4.0 mi ENE 15.0 mph - N/A   Overcast
8:53 AM 35.1 °F 25.9 °F 35.1 °F 100% 30.08 in 4.0 mi ENE 13.8 mph - N/A   Overcast
9:53 AM 36.0 °F 25.6 °F 35.1 °F 97% 30.07 in 5.0 mi ENE 18.4 mph - N/A   Overcast
10:53 AM 37.0 °F 27.0 °F 35.1 °F 93% 30.06 in 10.0 mi ENE 18.4 mph 24.2 mph N/A   Overcast
11:53 AM 37.0 °F 26.4 °F 35.1 °F 93% 30.06 in 10.0 mi ENE 20.7 mph 26.5 mph N/A   Overcast
12:53 PM 37.9 °F 28.2 °F 36.0 °F 93% 30.04 in 10.0 mi ENE 18.4 mph 26.5 mph N/A   Overcast
1:53 PM 39.0 °F 29.9 °F 35.1 °F 86% 30.04 in 10.0 mi East 17.3 mph - N/A   Overcast
2:53 PM 39.0 °F 29.9 °F 35.1 °F 86% 30.02 in 10.0 mi ENE 17.3 mph 27.6 mph N/A   Overcast
3:53 PM 37.9 °F 28.2 °F 35.1 °F 89% 30.01 in 10.0 mi East 18.4 mph - N/A   Overcast
4:53 PM 37.9 °F 27.9 °F 35.1 °F 89% 29.99 in 10.0 mi ENE 19.6 mph 23.0 mph N/A   Overcast
5:53 PM 37.0 °F 27.4 °F 35.1 °F 93% 29.99 in 10.0 mi ENE 17.3 mph 23.0 mph N/A   Overcast
6:53 PM 36.0 °F 26.3 °F 34.0 °F 93% 29.98 in 10.0 mi ENE 16.1 mph - N/A   Overcast
7:53 PM 36.0 °F 27.1 °F 34.0 °F 93% 29.96 in 10.0 mi ENE 13.8 mph 20.7 mph N/A   Overcast
8:53 PM 36.0 °F 26.7 °F 34.0 °F 93% 29.95 in 10.0 mi ENE 15.0 mph - N/A   Overcast
9:53 PM 35.1 °F 26.4 °F 34.0 °F 96% 29.94 in 10.0 mi East 12.7 mph - N/A   Overcast
10:53 PM 35.1 °F 25.9 °F 34.0 °F 96% 29.94 in 10.0 mi East 13.8 mph - N/A   Overcast
11:53 PM 34.0 °F 26.6 °F 33.1 °F 96% 29.93 in 8.0 mi ENE 9.2 mph - N/A   Overcast